www.pogodaiklimat.ru

Погода и климат >> Архив погоды >> Антарктида >> Mirnyj


ПОГОДА в Mirnyj

  • Прогноз погоды в Mirnyj
  • Монитор погоды в Mirnyj
  • Климат города

АРХИВ ПОГОДЫ в Mirnyj

Время (UTC), дата Ветер
(напр.,м/с)
 
Видим.   Явления Облачность Т
(С)
Тd
(С)
f
(%)
Тe
(С)
Тes
(С)
Комфортность P
(гПа)
Po
(гПа)
Тmin
(С)
Tmax
(С)
R
(мм)
R24
(мм)
S
(см)
06 8.12 В 5 20 км 10/10 600 м
[Sc]
-5.5 -7.5 86 -12 -12 979.8 974.4
12 8.12 В 3 20 км 6/6 600 м
[Sc]
-4.5 -7.0 83 -10 -9 979.2 973.8 -4.4
18 8.12 ЮВ 4 20 км 10/10 600 м
[Sc]
-5.0 -10.1 67 -11 -11 979.0 973.6
00 9.12 ЮВ 4 20 км 10/10 600 м
[Sc]
-4.9 -10.7 64 -11 -11 979.3 973.9 -7.2 43
06 9.12 В 6
{7}
2000 м снег {метель} 10/10 600 м
[Sc]
-3.5 -5.8 84 -11 -11 979.3 973.9
12 9.12 В 4
{5}
20 км {снег, метель} 10/10 600 м
[Sc]
-2.0 -5.4 78 -8 -8 981.4 976.0 -2.0 0.5
18 9.12 ЮВ 4 20 км 10/6 600 м
[Sc Ac As]
-5.9 -10.9 68 -12 -12 981.9 976.5
00 10.12 ЮВ 5
{6}
20 км позёмок {метель} 3/0
[Ci fib]
-6.9 -11.0 73 -14 -13 982.3 976.8 -8.3 43
06 10.12 СЗ 1 20 км {метель} ясно -1.3 -9.5 54 -3 +11 981.8 976.5
12 10.12 З 1 20 км 3/0
[Ci fib]
-1.9 -5.0 79 -4 -1 980.5 975.2 +1.3
18 10.12 Ю 5
{6}
20 км ясно -6.4 -12.2 63 -14 -14 978.5 973.1
00 11.12 ЮВ 3 20 км 3/0
[Ac As]
-5.5 -11.4 63 -10 -8 979.2 973.8 -9.1 45
06 11.12 З 2 20 км ясно -3.1 -8.1 68 -6 +7 979.2 973.8
12 11.12 З 1 20 км 3/1 600 м
[Sc Ac lent]
-1.9 -5.2 78 -2 0 980.1 974.8 -1.3
18 11.12 ЮВ 4 20 км 3/3 600 м
[Sc]
-7.3 -10.4 78 -14 -14 980.7 975.2
00 12.12 ЮВ 4
{5}
20 км 8/3 600 м
[Sc Ac trans Cc]
-5.2 -9.7 71 -12 -11 979.7 974.3 -7.9 45
06 12.12 В 4 20 км 9/0
[Ac trans]
-1.7 -6.7 69 -7 -4 978.3 973.0
12 12.12 В 5
{6}
20 км 10/10 600 м
[Sc]
-2.3 -6.4 73 -8 -8 978.2 972.9 -1.5
18 12.12 В 4 20 км {снег} 10/10 600 м
[Sc]
-2.5 -7.2 70 -8 -8 977.4 972.1
00 13.12 ЮВ 4 20 км {снег} 10/10 600 м
[Sc]
-3.1 -8.3 67 -9 -9 977.8 972.4 -3.5 0.2 45
06 13.12 В 2 20 км 10/0
[As trans]
-0.6 -6.3 65 -4 +1 978.2 972.9
12 13.12 ЮВ 1 20 км 10/0
[As trans]
-0.4 -5.2 70 -2 -1 979.4 974.1 +0.3
18 13.12 В 3 4000 м слабый снег 10/0
[As op]
-2.4 -3.8 90 -7 -7 982.5 977.1
00 14.12 В 1 1000 м сильный снег 10/10 200 м
[Frnb Ns]
-2.7 -3.7 93 -5 -5 986.2 980.8 -3.0 0.6 46
06 14.12 В 2 4000 м слабый снег 10/8 300 м
[Frnb As trans]
-2.1 -3.7 89 -6 -5 987.5 982.1
12 14.12 В 1 4000 м дымка {снег} 10/4 600 м
[Sc Ac lent Cs]
-2.0 -3.1 92 -4 -3 988.1 982.7 -1.4 0.6
18 14.12 В 2 4000 м слабый снег 10/10 600 м
[Sc]
-2.8 -3.8 93 -7 -7 986.5 981.1
00 15.12 В 5
{6}
10 км позёмок {снег, метель} 10/10 600 м
[Sc]
-2.8 -5.8 80 -9 -9 985.4 980.0 -7.4 0.9 47

 

Местоположение метеостанции Mirnyj (Антарктида): широта -66.55 долгота 93.02 высота над уровнем моря 39 м.

В архиве по умолчанию представлена погода в Mirnyj за последнюю неделю. Архивные данные за месяц целиком и за предыдущие месяцы, начиная с января 2011 года, Вы можете получить, выбрав интересующий диапазон дат из раскрывающегося списка и нажав кнопку "Ввод!".


*Определитесь, кто Вы:
робот инопланетянин человек

Внимание! Время в таблицах - всемирное. Для получения местного времени необходимо прибавить поправку, которая в Mirnyj равна 0 ч.

Смотрите также архив погоды в соседних городах и на ближайших метеорологических станциях:

Погода в Oazic Bangera (Антарктида) (345 км)
Погода в Davis (Whoop Whoop) (Антарктида) (639 км)
Погода в Casey Snyder Rocks (Антарктида) (650 км)
Погода в Davis (Антарктида) (676 км)
Погода в Progress (Антарктида) (759 км)
Погода в Zhongshan (Антарктида) (759 км)
Погода в Bharati (Антарктида) (767 км)
Погода в Casey (Антарктида) (776 км)
Погода в Casey Skiway South (Антарктида) (788 км)
Погода в Casey (Peterson air) (Антарктида) (800 км)

Пояснения к столбцам:

Ветер - указаны скорость ветра в м/с - средняя за 10 мин, порывы в срок и между сроками (в фигурных скобках) и направление, откуда дует ветер: С - северный, СВ - северо-восточный, В - восточный, ЮВ - юго-восточный, Ю - южный, ЮЗ - юго-западный, З - западный, СЗ - северо-западный.
Видимость - горизонтальная дальность видимости в метрах или километрах. При видимости от 1 до 10 км при отсутствии осадков обычно наблюдается дымка, при ухудшении видимости до 1 км и менее - туман. В сухую погоду видимость может ухудшаться дымом, пылью или мглою.
Явления - указаны атмосферные явления, наблюдавшиеся в срок или в последний час перед сроком; фигурными скобками обозначены явления, наблюдавшиеся между сроками (за 1-3 часа до срока); квадратными скобками обозначены град или гололедные отложения с указанием их диаметра в мм.
Облачность - указаны через наклонную черту общая и нижняя облачность в баллах и высота нижней границы облаков в метрах; квадратными скобками обозначены формы облаков: Ci - перистые, Cs - перисто-слоистые, Cc - перисто-кучевые, Ac - высококучевые, As - высокослоистые, Sc - слоисто-кучевые, Ns - слоисто-дождевые, Cu - кучевые, Cb - кучево-дождевые. Подробнее классификацию облаков см. в Атласе облаков (PDF).
T - Температура воздуха - температура, измеренная на высоте 2 м над землей.
Td - Температура точки росы - температура, при понижении до которой содержащийся в воздухе водяной пар достигнет насыщения.
f - Относительная влажность воздуха - влажноcть воздуха, измеренная на высоте 2 м над землей.
Te - Эффективная температура - температура, которую ощущает одетый по сезону человек в тени. Характеристика душности погоды. При расчете учитывается влияние влажности воздуха и скорости ветра на теплоощущения человека.
Tes - Эффективная температура на солнце - температура, которую ощущает человек, с поправкой на солнечный нагрев. Характеристика знойности погоды. Зависит от высоты солнца над горизонтом, облачности и скорости ветра. Ночью, в пасмурную погоду, а также при ветре 12 м/с и более поправка равна нулю.
P - Атмосферное давление - приведенное к уровню моря атмосферное давление.
Po - Атмосферное давление - измеренное на уровне метеостанции атмосферное давление.
Tmin - Минимальная температура - минимум температуры воздуха на высоте 2 м над землей.
Tmax - Максимальная температура - максимум температуры воздуха на высоте 2 м над землей.
R - Количество осадков - Количество выпавших осадков за период времени, мм. При наведении курсора мыши на число - период времени, за который выпало указанное количество осадков.
R24 - Количество осадков - Количество выпавших осадков за 24 часа, мм.
S - Снежный покров - Высота снежного покрова, см. При наведении курсора мыши на число - состояние снежного покрова и степень покрытия местности в баллах.